Orbital Elements at Epoch 2459200.5 (2020-Dec-17.0) TDB
Reference: JPL 39 (heliocentric ecliptic J2000)
Element | Value | Uncertainty (1-sigma) | Units |
e | .1063434011571447 | 1.7777e-08 | |
a | 2.196092799345717 | 5.3747e-09 | au |
q | 1.962552821806579 | 3.9214e-08 | au |
i | 5.606610446011445 | 1.4587e-06 | deg |
node | 75.32701501378416 | 6.194e-06 | deg |
peri | 15.74051605938591 | 1.0285e-05 | deg |
M | 29.35562685282486 | 1.1532e-05 | deg |
tp | 2459103.568860848039 (2020-Sep-11.06886085) | 3.8008e-05 | TDB |
period | 1188.706010934593 3.25 | 4.3638e-06 1.195e-08 | d yr |
n | .3028503235353865 | 1.1118e-09 | deg/d |
Q | 2.429632776884855 | 5.9462e-09 | au |
|
| | Orbit Determination Parameters
Additional Information
|